Eastsound, WA
on Saturday, February 9, 2013

Saturday
Previous Day Next Day
Daily Summary
 ActualAverage (KBLI)Record (KBLI)
Temperature
Mean Temperature °F 40°F  
Max Temperature 42°F 48°F 59°F (1963)
Min Temperature 39°F 33°F 22°F (1989)
Degree Days
Heating Degree Days 24 25  
Month to date heating degree days 225  
Cooling Degree Days 0 0  
Month to date cooling degree days 0  
Year to date cooling degree days 0  
Moisture
Dew Point 39°F   
Average Humidity 95    
Maximum Humidity 100    
Minimum Humidity 87    
Precipitation
Precipitation 0.00 in 0.11 in 1.76 in (1951)
Month to date precipitation 1.04  
Year to date precipitation 5.71  
Wind
Wind Speed 0 mph   
Max Wind Speed 0 mph   
Max Gust Speed mph   
Visibility 9 miles   
Events Rain   

Key: T is trace of precipitation, MM is missing value
Source: NWS Daily Summary
Time(PST)TemperatureDew PointHumidity Pressure Visibility Wind DirectionWind SpeedGust SpeedPrecipitationEvents Conditions
12:15 AM 39.2°F 37.4°F 93% 30.26 in 10.0 miles Calm Calm - N/A   Overcast
12:35 AM 39.2°F 37.4°F 93% 30.26 in 10.0 miles Calm Calm - N/A   Overcast
12:55 AM 39.2°F 37.4°F 93% 30.26 in 10.0 miles Calm Calm - N/A   Overcast
1:15 AM 39.2°F 37.4°F 93% 30.26 in 10.0 miles Calm Calm - N/A   Overcast
1:35 AM 39.2°F 37.4°F 93% 30.26 in 10.0 miles Calm Calm - N/A   Overcast
1:55 AM 39.2°F 37.4°F 93% 30.26 in 10.0 miles Calm Calm - N/A   Overcast
2:15 AM 39.2°F 37.4°F 93% 30.26 in 10.0 miles Calm Calm - N/A   Overcast
2:35 AM 39.2°F 37.4°F 93% 30.26 in 10.0 miles Calm Calm - N/A   Overcast
2:55 AM 39.2°F 37.4°F 93% 30.25 in 10.0 miles Calm Calm - N/A   Overcast
3:15 AM 39.2°F 37.4°F 93% 30.25 in 10.0 miles Calm Calm - N/A   Overcast
3:35 AM 39.2°F 37.4°F 93% 30.25 in 10.0 miles Calm Calm - N/A   Overcast
3:55 AM 39.2°F 37.4°F 93% 30.25 in 10.0 miles Calm Calm - N/A   Overcast
4:15 AM 39.2°F 37.4°F 93% 30.25 in 10.0 miles Calm Calm - N/A   Overcast
4:35 AM 39.2°F 37.4°F 93% 30.25 in 10.0 miles Calm Calm - N/A   Overcast
4:55 AM 39.2°F 37.4°F 93% 30.25 in 10.0 miles Calm Calm - N/A   Overcast
5:15 AM 39.2°F 37.4°F 93% 30.26 in 10.0 miles Calm Calm - N/A   Overcast
5:35 AM 39.2°F 37.4°F 93% 30.26 in 10.0 miles Calm Calm - N/A   Overcast
5:55 AM 39.2°F 37.4°F 93% 30.25 in 10.0 miles Calm Calm - N/A   Overcast
6:15 AM 39.2°F 37.4°F 93% 30.25 in 10.0 miles Calm Calm - N/A   Overcast
6:35 AM 39.2°F 37.4°F 93% 30.25 in 10.0 miles Calm Calm - N/A   Overcast
6:55 AM 39.2°F 39.2°F 100% 30.25 in 10.0 miles Calm Calm - N/A   Overcast
7:15 AM 39.2°F 39.2°F 100% 30.25 in 10.0 miles Calm Calm - N/A   Mostly Cloudy
7:35 AM 39.2°F 37.4°F 93% 30.24 in 10.0 miles Calm Calm - N/A   Overcast
7:55 AM 39.2°F 37.4°F 93% 30.25 in 10.0 miles Calm Calm - N/A   Overcast
8:15 AM 39.2°F 39.2°F 100% 30.25 in 10.0 miles Calm Calm - N/A   Overcast
8:35 AM 41.0°F 39.2°F 93% 30.26 in 8.0 miles Calm Calm - N/A   Overcast
8:55 AM 41.0°F 39.2°F 93% 30.25 in 4.0 miles Calm Calm - N/A   Overcast
9:15 AM 41.0°F 39.2°F 93% 30.26 in 10.0 miles Calm Calm - N/A   Overcast
9:35 AM 41.0°F 39.2°F 93% 30.26 in 9.0 miles Calm Calm - N/A   Overcast
9:55 AM 41.0°F 39.2°F 93% 30.27 in 4.0 miles Calm Calm - N/A   Overcast
10:15 AM 41.0°F 39.2°F 93% 30.27 in 2.5 miles Calm Calm - N/A   Overcast
10:35 AM 41.0°F 39.2°F 93% 30.27 in 9.0 miles Calm Calm - N/A   Overcast
10:55 AM 41.0°F 39.2°F 93% 30.27 in 7.0 miles Calm Calm - N/A   Overcast
11:15 AM 41.0°F 39.2°F 93% 30.27 in 8.0 miles Calm Calm - N/A   Overcast
11:35 AM 41.0°F 39.2°F 93% 30.27 in 7.0 miles Calm Calm - N/A   Overcast
11:55 AM 41.0°F 39.2°F 93% 30.27 in 8.0 miles Calm Calm - N/A   Overcast
12:15 PM 41.0°F 39.2°F 93% 30.27 in 5.0 miles Calm Calm - N/A   Overcast
12:35 PM 41.0°F 39.2°F 93% 30.26 in 5.0 miles Calm Calm - N/A Rain Light Rain
12:55 PM 41.0°F 39.2°F 93% 30.27 in 7.0 miles Calm Calm - N/A Rain Light Rain
1:15 PM 41.0°F 39.2°F 93% 30.27 in 5.0 miles Calm Calm - N/A   Scattered Clouds
1:35 PM 41.0°F 39.2°F 93% 30.26 in 10.0 miles Calm Calm - N/A   Mostly Cloudy
1:55 PM 41.0°F 39.2°F 93% 30.26 in 9.0 miles Calm Calm - N/A   Overcast
2:15 PM 41.0°F 39.2°F 93% 30.26 in 7.0 miles North - - N/A Rain Light Rain
2:35 PM 41.0°F 39.2°F 93% 30.27 in 6.0 miles Calm Calm - N/A Rain Light Rain
3:15 PM 41.0°F 39.2°F 93% 30.27 in 10.0 miles Calm Calm - N/A   Overcast
3:35 PM 41.0°F 39.2°F 93% 30.27 in 10.0 miles Calm Calm - N/A   Overcast
3:55 PM 42.8°F 39.2°F 87% 30.28 in 10.0 miles Calm Calm - N/A   Overcast
4:15 PM 42.8°F 39.2°F 87% 30.28 in 10.0 miles Calm Calm - N/A   Overcast
4:35 PM 41.0°F 39.2°F 93% 30.29 in 10.0 miles Calm Calm - N/A   Overcast
5:15 PM 41.0°F 39.2°F 93% 30.29 in 10.0 miles Calm Calm - N/A   Overcast
5:35 PM 41.0°F 39.2°F 93% 30.29 in 10.0 miles Calm Calm - N/A   Overcast
5:55 PM 41.0°F 39.2°F 93% 30.29 in 10.0 miles Calm Calm - N/A   Overcast
6:15 PM 41.0°F 39.2°F 93% 30.29 in 10.0 miles Calm Calm - N/A   Overcast
6:35 PM 39.2°F 39.2°F 100% 30.29 in 10.0 miles Calm Calm - N/A   Overcast
6:55 PM 39.2°F 39.2°F 100% 30.29 in 9.0 miles Calm Calm - N/A   Overcast
7:15 PM 39.2°F 39.2°F 100% 30.29 in 7.0 miles Calm Calm - N/A   Overcast
7:35 PM 39.2°F 39.2°F 100% 30.29 in 7.0 miles Calm Calm - N/A   Overcast
7:55 PM 39.2°F 39.2°F 100% 30.29 in 9.0 miles Calm Calm - N/A   Overcast
8:15 PM 39.2°F 39.2°F 100% 30.30 in 8.0 miles Calm Calm - N/A   Overcast
8:35 PM 39.2°F 39.2°F 100% 30.30 in 10.0 miles Calm Calm - N/A   Overcast
8:55 PM 39.2°F 39.2°F 100% 30.31 in 9.0 miles Calm Calm - N/A   Overcast
9:15 PM 39.2°F 39.2°F 100% 30.32 in 9.0 miles Calm Calm - N/A   Overcast
9:35 PM 39.2°F 39.2°F 100% 30.32 in 10.0 miles Calm Calm - N/A   Overcast
10:15 PM 39.2°F 39.2°F 100% 30.33 in 7.0 miles Calm Calm - N/A   Overcast
10:35 PM 39.2°F 39.2°F 100% 30.33 in 7.0 miles Calm Calm - N/A   Overcast
10:55 PM 39.2°F 39.2°F 100% 30.33 in 7.0 miles Calm Calm - N/A   Overcast
11:15 PM 39.2°F 39.2°F 100% 30.33 in 7.0 miles Calm Calm - N/A   Overcast
11:35 PM 41.0°F 39.2°F 93% 30.33 in 7.0 miles Calm Calm - N/A   Overcast
11:55 PM 41.0°F 39.2°F 93% 30.33 in 8.0 miles Calm Calm - N/A   Overcast
Moon Phase
Feb. 09 Feb. 10 Feb. 17 Feb. 25 Mar. 04
Sunrise:07:28 AM (PST) Moon Rise:06:42 AM (PST)2/9
Sunset:05:23 PM (PST) Moon Set:05:16 PM (PST)2/9

Copyright © 2014 The Weather Underground, Inc.